Flag for Canada Weather past 2 weeks in Stonewall, Manitoba, Canada

Now
27 °F

Ice fog.


Feels Like: 18 °F
Forecast: 20 / 26 °F
Wind: 8 mph from Southeast

Location: Winnipeg Int. Airportman.

Current Time: Dec 19, 2014 at 7:34:09 PM

Latest Report: Dec 19, 2014 at 7:00 PM


Visibility: 4 mi

Pressure: 30.08 "Hg

Humidity: 93%

Dew point: 25 °F

Location of StonewallLocation

Historic Weather in Stonewall — Graph

°F

Stonewall temperature yesterday

Maximum temperature yesterday: 19 °F (at 6:00 PM)
Minimum temperature yesterday: 3 °F (at 6:00 AM)
Average temperature yesterday: 12 °F

Past Weeks' High & Low Weather Summary

 TemperatureHumidityPressure
High34 °F (Dec 12, 2:00 PM)100% (Dec 11, 9:00 AM)30.63 "Hg (Dec 11, 9:00 AM)
Low-6 °F (Dec 17, 3:00 AM)67% (Dec 8, 2:00 PM)29.84 "Hg (Dec 12, 6:00 PM)
Average18 °F86%30.18 "Hg
* Reported Dec 4 6:00 PM — Dec 19 6:00 PM, Stonewall, Weather by CustomWeather, © 2014

Note: Actual official high and low records may vary slightly from our data, if they occured in-between our weather recording intervals... More about our weather records

Advertising

Stonewall weather history for previous 24 hours

 ConditionsComfort  
Time TempWeatherWind HumidityBarometerVisibility
6:00 PM
Dec 19
27 °FLight mixture of precip. Low clouds.9 mph93%30.09 "Hg3 mi
5:00 PM27 °FLight mixture of precip. Low clouds.9 mph93%30.09 "Hg2 mi
4:00 PM25 °FLight mixture of precip. Low clouds.10 mph93%30.09 "Hg2 mi
3:00 PM25 °FLight mixture of precip. Low clouds.13 mph93%30.07 "Hg2 mi
2:00 PM25 °FLight mixture of precip. Low clouds.10 mph93%30.07 "Hg2 mi
1:00 PM25 °FLight mixture of precip. Low clouds.14 mph93%30.08 "Hg2 mi
12:00 PM23 °FLight mixture of precip. Low clouds.13 mph93%30.10 "Hg2 mi
11:53 AM23 °FLight mixture of precip. Low clouds.14 mph93%30.10 "Hg2 mi
11:00 AM23 °FLight snow. Ice fog.14 mph93%30.12 "Hg2 mi
10:00 AM23 °FLight freezing rain. Ice fog.14 mph93%30.12 "Hg3 mi
9:00 AM21 °FLight freezing rain. Ice fog.14 mph93%30.12 "Hg2 mi
8:00 AM21 °FLight freezing rain. Ice fog.14 mph93%30.12 "Hg2 mi
7:00 AM21 °FLight freezing rain. Ice fog.13 mph93%30.12 "Hg2 mi
6:00 AM21 °FLight freezing rain. Ice fog.14 mph93%30.13 "Hg2 mi
5:00 AM21 °FLight freezing rain. Ice fog.13 mph93%30.14 "Hg2 mi
4:00 AM19 °FLight freezing rain. Ice fog.13 mph93%30.15 "Hg2 mi
3:00 AM19 °FLight freezing rain. Ice fog.12 mph93%30.16 "Hg3 mi
2:00 AM19 °FCold.12 mph93%30.16 "Hg2 mi
1:00 AM19 °FIce fog.14 mph86%30.17 "Hg4 mi
12:00 AM19 °FIce fog.16 mph86%30.19 "Hg15 mi
11:00 PM
Dec 18
19 °FMostly cloudy.13 mph79%30.19 "Hg15 mi
10:00 PM19 °FMostly cloudy.13 mph79%30.19 "Hg15 mi
9:00 PM19 °FOvercast.15 mph79%30.19 "Hg15 mi
8:00 PM19 °FOvercast.10 mph79%30.20 "Hg15 mi
7:00 PM19 °FOvercast.14 mph79%30.20 "Hg15 mi
Weather by CustomWeather, © 2014

See weather overviewHow to use our weather pages